Barrow, AK

4:11 PM AKDT on October 19, 2017 (GMT -0800)
Wiley Post-Will Rogers Memorial

Weather History for PABR - October, 2011

Change the Weather History Date:

Saturday, October 8, 2011

  Actual Average Record
Temperature  
Mean Temperature 28 °F 22 °F  
Max Temperature 32 °F 26 °F 37 °F (1998)
Min Temperature 23 °F 18 °F -12 °F (1994)
Degree Days  
Heating Degree Days 37 43  
Month to date heating degree days 324 328  
Since 1 July heating degree days 2573 2869  
Cooling Degree Days 0 0  
Month to date cooling degree days 0 0  
Year to date cooling degree days 0 0  
Moisture  
Dew Point 24 °F    
Average Humidity 0    
Maximum Humidity 0    
Minimum Humidity 0    
Precipitation  
Precipitation T in 0.02 in 0.17 in (1957)
Month to date precipitation 0.32 0.13  
Year to date precipitation 4.99 3.90  
Snow  
Snow 0.10 in 0.30 in 1.60 in (2002)
Month to date snowfall 5.6 2.1  
Since 1 July snowfall 10.9 7.6  
Since 1 September snowfall 10.5 6.5  
Snow Depth 4.00 in    
Sea Level Pressure  
Sea Level Pressure 29.95 in    
Wind  
Wind Speed 8 mph (NE)    
Max Wind Speed 18 mph    
Max Gust Speed 23 mph    
Visibility 8 miles    
Events Snow    
T = Trace of Precipitation, MM = Missing Value Source: NWS Daily Summary

Daily Weather History Graph

Daily Weather History Graph

Search for Another Location

Airport or City:

Trip Planner

Search our weather history database for the weather conditions in past years. The results will help you decide how hot, cold, wet, or windy it might be!

Date:

Astronomy

Oct. 08, 2011 Rise Set
Actual Time 9:15 AM AKDT 7:11 PM AKDT
Civil Twilight 8:09 AM AKDT 8:17 PM AKDT
Nautical Twilight 6:53 AM AKDT 9:32 PM AKDT
Astronomical Twilight 5:28 AM AKDT 10:56 PM AKDT
Moon 6:32 PM AKDT (10/8) 4:45 AM AKDT (10/8)
Length of Visible Light 12h 07m
Length of Day
9h 56m
Waxing Gibbous, 91% of the Moon is Illuminated
Oct 8
Waxing Gibbous
Oct 11
Full
Oct 19
Last Quarter
Oct 26
New
Nov 2
First Quarter

Hourly Weather History & Observations

Time (AKDT) Temp. Windchill Dew Point Humidity Pressure Visibility Wind Dir Wind Speed Gust Speed Precip Events Conditions
12:53 AM 28.9 °F 22.8 °F 24.1 °F 82% 29.94 in 8.0 mi NE 5.8 mph - 0.00 in Snow Light Snow
1:53 AM 30.0 °F 23.2 °F 25.0 °F 82% 29.95 in 10.0 mi ENE 6.9 mph - 0.00 in   Overcast
2:53 AM 30.0 °F 24.1 °F 24.1 °F 79% 29.96 in 10.0 mi ENE 5.8 mph - N/A   Overcast
3:53 AM 30.0 °F 23.2 °F 23.0 °F 75% 29.96 in 10.0 mi ENE 6.9 mph - N/A   Overcast
4:53 AM 30.0 °F 25.2 °F 23.0 °F 75% 29.96 in 10.0 mi NE 4.6 mph - N/A   Overcast
5:53 AM 28.9 °F 23.9 °F 21.9 °F 75% 29.96 in 10.0 mi NNE 4.6 mph - N/A   Overcast
6:41 AM 30.2 °F 23.4 °F 23.0 °F 75% 29.96 in 10.0 mi NE 6.9 mph - N/A   Overcast
6:53 AM 30.0 °F 24.1 °F 24.1 °F 79% 29.96 in 10.0 mi NE 5.8 mph - N/A   Overcast
7:53 AM 28.9 °F 25.2 °F 24.1 °F 82% 29.96 in 10.0 mi East 3.5 mph - N/A   Overcast
8:53 AM 30.0 °F 23.2 °F 23.0 °F 75% 29.97 in 10.0 mi ENE 6.9 mph - N/A   Overcast
9:53 AM 28.9 °F 21.9 °F 24.1 °F 82% 29.97 in 10.0 mi ENE 6.9 mph - N/A   Overcast
10:37 AM 30.2 °F 21.9 °F 21.2 °F 69% 29.97 in 10.0 mi ENE 9.2 mph - N/A   Overcast
10:53 AM 28.9 °F 21.9 °F 21.9 °F 75% 29.97 in 10.0 mi ENE 6.9 mph - N/A   Mostly Cloudy
11:53 AM 30.9 °F 23.5 °F 23.0 °F 72% 29.97 in 10.0 mi NE 8.1 mph - N/A   Mostly Cloudy
12:53 PM 30.0 °F 21.1 °F 26.1 °F 85% 29.97 in 10.0 mi ENE 10.4 mph - N/A   Mostly Cloudy
1:30 PM 28.4 °F 21.2 °F 24.8 °F 86% 29.97 in 10.0 mi ENE 6.9 mph - N/A   Mostly Cloudy
1:53 PM 28.0 °F 19.3 °F 25.0 °F 88% 29.98 in 10.0 mi ENE 9.2 mph - N/A   Mostly Cloudy
2:53 PM 26.1 °F 17.6 °F 24.1 °F 92% 29.97 in 7.0 mi East 8.1 mph - 0.00 in Snow Light Snow
3:53 PM 24.1 °F 18.2 °F 23.0 °F 96% 29.97 in 8.0 mi SE 4.6 mph - 0.00 in   Scattered Clouds
4:21 PM 24.8 °F 19.1 °F 23.0 °F 93% 29.96 in 1.8 mi SE 4.6 mph - N/A   Scattered Clouds
4:33 PM 24.8 °F 20.5 °F 23.0 °F 93% 29.96 in 3.0 mi ESE 3.5 mph - N/A   Mostly Cloudy
4:53 PM 28.0 °F 24.2 °F 25.0 °F 88% 29.97 in 8.0 mi NE 3.5 mph - N/A   Overcast
5:53 PM 28.9 °F 20.4 °F 24.1 °F 82% 29.96 in 10.0 mi NE 9.2 mph - N/A   Overcast
6:53 PM 28.0 °F 20.0 °F 19.9 °F 72% 29.96 in 10.0 mi North 8.1 mph - N/A   Overcast
7:42 PM 28.4 °F 21.2 °F 21.2 °F 74% 29.95 in 10.0 mi North 6.9 mph - N/A   Overcast
7:53 PM 28.9 °F 21.1 °F 21.9 °F 75% 29.95 in 10.0 mi North 8.1 mph - N/A   Overcast
8:00 PM 28.4 °F 20.4 °F 23.0 °F 80% 29.95 in 10.0 mi North 8.1 mph - N/A   Overcast
8:10 PM 28.4 °F 23.3 °F 21.2 °F 74% 29.95 in 10.0 mi North 4.6 mph - N/A   Overcast
8:53 PM 28.9 °F 21.1 °F 24.1 °F 82% 29.94 in 10.0 mi North 8.1 mph - N/A   Overcast
9:16 PM 28.4 °F 21.2 °F 24.8 °F 86% 29.93 in 10.0 mi NNW 6.9 mph - N/A   Overcast
9:53 PM 30.0 °F 21.7 °F 25.0 °F 82% 29.93 in 10.0 mi NNW 9.2 mph - 0.00 in   Overcast
10:06 PM 30.2 °F 21.9 °F 26.6 °F 86% 29.92 in 8.0 mi NNW 9.2 mph - N/A   Overcast
10:26 PM 30.2 °F 21.9 °F 26.6 °F 86% 29.92 in 6.0 mi NNW 9.2 mph - 0.00 in Snow Light Snow
10:37 PM 30.2 °F 20.2 °F 28.4 °F 93% 29.92 in 1.8 mi NW 12.7 mph - 0.00 in Snow Light Snow
10:47 PM 30.2 °F 21.3 °F 28.4 °F 93% 29.91 in 1.5 mi NNW 10.4 mph - 0.00 in Snow Light Snow
10:53 PM 30.0 °F 20.5 °F 28.0 °F 92% 29.92 in 2.5 mi NNW 11.5 mph - 0.00 in Snow Light Snow
11:39 PM 30.2 °F 18.1 °F 28.4 °F 93% 29.90 in 1.2 mi North 18.4 mph - 0.00 in Snow Light Snow
11:53 PM 30.9 °F 19.4 °F 30.0 °F 96% 29.91 in 2.5 mi North 17.3 mph - 0.00 in Snow Light Snow